Weather in Vannes

France     47°40′24″N   2°47′06″W
temp.,
°C
wind,
m/s
gust,
m/s
humid.,
%
clouds,
%
prec.,
mm/h
press.,
hPa
HPBL,
m
25 february, thu
thu2501:00+8wsw128885 0.0 102522
04:00+7e1190100 0.0 102422
07:00+7ne1192100 0.0 102522
10:00+10n3691100 0.0 1027253
13:00+11n4580100 0.0 1029522
16:00+10n5786100 0.2 1030567
19:00+8nne4888100 0.3 1031408
22:00+7n4989100 0.0 1034289
26 february, fri
fri2601:00+4n499377 0.0 1035210
04:00+4n49930 0.0 1035187
07:00+3nne48950 0.0 1036160
10:00+7nne58830 0.0 1036395
13:00+10nne57660 0.0 1036970
16:00+11nne57620 0.0 10351048
19:00+6nne47850 0.0 1036154
22:00+5nne511920 0.0 1037235
27 february, sat
sat2701:00+3ne410910 0.0 1037236
04:00+2nne59870 0.0 1037205
07:00+2ne511880 0.0 1037254
10:00+6ne712740 0.0 1038501
13:00+10ne69590 0.0 1037896
16:00+11ne68630 0.0 1035930
19:00+6nne512820 0.0 1034392
22:00+4ne512860 0.0 1035332
28 february, sun
sun2801:00+3ne511900 0.0 1034281
04:00+3ne511890 0.0 1033263
07:00+2ne511900 0.0 1031259
10:00+5ne6117614 0.0 1030430
13:00+9ene69667 0.0 1029908
16:00+10ene696630 0.0 10271029
19:00+7ene4108219 0.0 1026277
22:00+7ene4107876 0.1 1026453
1 march, mon
mon101:00+5ene499478 0.3 1025246
04:00+4ene489712 0.0 1024198
07:00+6e589256 0.0 1023282
10:00+7e6990100 0.0 1023275
13:00+13ese687574 0.0 1023679
16:00+13sse58731 0.0 1021778
19:00+9sse410910 0.0 1022238
22:00+8sse49940 0.0 1023207